Tracking 22287 objects as of 27-Jan-2021
HD Live streaming from Space Station
objects crossing your sky now

ONEWEB-0095

Track ONEWEB-0095 now!
10-day predictions
ONEWEB-0095 is classified as:


NORAD ID: 45436
Int'l Code: 2020-020N
Perigee: 1,223.5 km
Apogee: 1,226.1 km
Inclination: 87.9 °
Period: 109.8 minutes
Semi major axis: 7595 km
RCS: Unknown
Launch date: March 21, 2020
Source: United Kingdom (UK)
Launch site: TYURATAM MISSILE AND SPACE COMPLEX (TTMTR)
aabbcc
Your satellite tracking list
Your tracking list is empty




NASA's NSSDC Master Catalog

Two Line Element Set (TLE):
1 45436U 20020N   21027.58334491 -.00007956  00000-0 -22498-1 0  9990
2 45436  87.8850  52.0609 0001694  92.9402 342.5103 13.11432035 44928
Source of the keplerian elements: AFSPC